Location: Eboldshausen
(51.7766°N, 10.0050°E)
Time: 18:24:52
(UTC+00:00)

PSLV R/B - Pass Details

Date: 15 November 2025
Orbit: 561 x 589 km, 98.0° (Epoch: 10 December)

Event Time Altitude Azimuth Distance (km) Brightness Sun altitude
Rises 17:40:04 0° 166° (SSE) 2,764 6.8 -20.0°
Reaches altitude 10° 17:42:12 10° 167° (SSE) 1,867 5.9 -20.3°
Maximum altitude 17:46:15 84° 253° (WSW) 577 3.3 -20.9°
Drops below altitude 10° 17:50:18 10° 344° (NNW) 1,870 6.2 -21.6°
Sets 17:52:27 0° 345° (NNW) 2,769 7.1 -21.9°
